Powrót do katalogu

DELTA 1 DEB

AktywnyLEO
NORAD 10471·DEBRIS·🇺🇸 United States

Wystrzelony Jul 14, 1977 z Cape Canaveral Space Force Station

Loading…

Następne Przeloty (najbliższe 24 godziny)

TLE

ŚwieżeSource: Space-Track

Epoka: Sep 14, 2026, 09:13 UTC

1 10471U 77065ED  26257.38413391  .00000833  00000-0  22243-3 0  9992
2 10471  29.0564 146.4190 0842676 103.5630 266.0116 13.26106818365223

Śledź DELTA 1 DEB w czasie rzeczywistym z AllMySat

Download on the App Store